Location: Star Dogged Moon Observatory
(29.7756°N, 82.0783°W)
Time: 15:57:59
(UTC-04:00)

Amateur Radio Satellites - All Passes

Search period start: 06 July 2015 15:27
Search period end: 07 July 2015 15:27
Location: Star Dogged Moon Observatory, 29.7756°N, 82.0783°W

Satellite Date Start Highest point End Downlink Frequencies (MHz)
Time Altitude Azimuth
JAS-2 06 Jul 15:29:50 15:33:59 26° 71° (ENE) 15:38:23 435.910
SRMSAT 06 Jul 15:39:34 15:40:55 11° 161° (SSE) 15:42:25 437.500
YUBILEINY 06 Jul 15:42:32 15:51:19 79° 266° (W) 16:00:06 435.215
ISS 06 Jul 15:42:46 15:46:00 87° 46° (NE) 15:49:13 145.825
AIST 1 06 Jul 15:53:01 15:57:16 52° 94° (E) 16:01:35
Cosmos 2491 06 Jul 15:56:16 16:05:06 84° 95° (E) 16:13:57 435.465 / 435.565
STARS 06 Jul 16:06:45 16:10:27 27° 97° (E) 16:14:14 437.465
SO-50 06 Jul 16:10:12 16:14:27 38° 113° (ESE) 16:18:54 436.795
ITAMSAT 1 06 Jul 16:11:05 16:15:24 25° 264° (W) 16:19:36 435.822/435.867
Gurwin Techsat 1B 06 Jul 16:18:29 16:22:30 21° 266° (W) 16:26:21 435.225
BEESAT 06 Jul 16:19:45 16:23:01 18° 290° (WNW) 16:26:06 436.000
JUGNU 06 Jul 16:28:19 16:33:19 28° 172° (S) 16:38:22 437.505
AO-7 06 Jul 16:36:08 16:44:26 78° 72° (ENE) 16:52:50 29.400- 29.500
SWISSCUBE 06 Jul 16:37:38 16:38:52 11° 292° (WNW) 16:39:46 437.505
ITUPSAT 1 06 Jul 16:44:30 16:45:18 10° 292° (WNW) 16:45:42 437.325
HORYU 2 06 Jul 16:49:39 16:54:01 68° 259° (WSW) 16:58:25 437.375
KKS-1 06 Jul 16:56:25 17:00:32 38° 286° (WNW) 17:04:37 437.445
PCSat 06 Jul 17:00:38 17:04:35 20° 305° (NW) 17:08:22 145.827
BEESAT 3 06 Jul 17:07:28 17:11:30 77° 244° (WSW) 17:15:26 437.485
JAS-2 06 Jul 17:14:51 17:19:08 25° 265° (W) 17:23:22 435.910
AIST 2 06 Jul 17:19:16 17:22:30 22° 55° (NE) 17:25:46 435.215
BEESAT 2 06 Jul 17:22:58 17:26:59 65° 245° (WSW) 17:30:55 435.950
SRMSAT 06 Jul 17:25:02 17:29:36 23° 168° (SSE) 17:34:12 437.500
MOZHAYETS 4 06 Jul 17:29:57 17:34:18 39° 98° (E) 17:38:40
Cosmos 2504 06 Jul 17:37:46 17:45:26 67° 83° (E) 17:53:40 435.465 / 435.565
STARS 06 Jul 17:43:36 17:46:44 19° 289° (WNW) 17:49:43 437.465
SO-50 06 Jul 17:51:44 17:55:10 19° 308° (NW) 17:58:32 436.795
O/OREOS (USA 219) 06 Jul 17:53:15 17:57:42 57° 70° (ENE) 18:02:11 437.305
Cosmos 2491 06 Jul 17:58:09 18:03:10 15° 293° (WNW) 18:07:31 435.465 / 435.565
Cubesat XI-IV 06 Jul 17:59:27 18:02:44 17° 69° (ENE) 18:06:16 437.490
JUGNU 06 Jul 18:16:41 18:21:56 32° 182° (S) 18:27:11 437.505
AO-7 06 Jul 18:32:56 18:38:05 16° 268° (W) 18:42:38 29.400- 29.500
AIST 2 06 Jul 18:57:38 19:00:59 23° 249° (WSW) 19:04:14 435.215
CUTE-I 06 Jul 19:02:09 19:07:29 77° 76° (ENE) 19:12:53 437.470
MOZHAYETS 4 06 Jul 19:08:29 19:11:13 15° 290° (WNW) 19:13:45
SRMSAT 06 Jul 19:13:07 19:18:20 31° 177° (S) 19:23:32 437.500
Cosmos 2504 06 Jul 19:32:01 19:37:12 18° 273° (W) 19:42:03 435.465 / 435.565
BRITE-PL 06 Jul 19:35:17 19:38:30 17° 72° (ENE) 19:41:53 437.365/2234.400
Cubesat XI-IV 06 Jul 19:37:21 19:42:30 46° 261° (W) 19:47:39 437.490
CUBESAT XI-V 06 Jul 19:39:59 19:44:40 86° 102° (ESE) 19:49:18 437.345
DANDE 06 Jul 19:52:36 19:55:10 54° 82° (E) 19:57:46 436.750
STRAND 1 06 Jul 19:55:07 19:59:46 36° 98° (E) 20:04:28 437.568
JUGNU 06 Jul 20:05:49 20:10:31 24° 192° (SSW) 20:15:11 437.505
HO-68 06 Jul 20:12:36 20:17:50 24° 66° (ENE) 20:23:20 435.675
CUSAT 1 06 Jul 20:14:22 20:16:32 23° 264° (W) 20:18:51 437.405
GONETS M04 06 Jul 20:19:26 20:27:20 39° 77° (ENE) 20:35:22
PRISM 06 Jul 20:27:28 20:31:40 84° 102° (ESE) 20:35:49 437.425
GOMX 1 06 Jul 20:34:46 20:39:34 40° 75° (ENE) 20:44:09 467.674
CUTE 1.7 + AOD 2 06 Jul 20:36:13 20:38:54 17° 72° (ENE) 20:41:44 437.475
CANX-2 06 Jul 20:39:29 20:42:37 21° 73° (ENE) 20:45:52 2200.000
SRMSAT 06 Jul 21:02:03 21:07:05 28° 187° (S) 21:12:06 437.500
DOVE 4 06 Jul 21:06:52 21:11:40 54° 76° (ENE) 21:16:13 437.250
BRITE-PL 06 Jul 21:11:24 21:16:46 48° 261° (W) 21:21:48 437.365/2234.400
SEEDS 06 Jul 21:19:06 21:23:05 47° 76° (ENE) 21:27:08 437.485
AAUSAT CUBESAT 2 06 Jul 21:24:09 21:27:53 34° 75° (ENE) 21:31:40 437.432
M-CUBED/EXP-1 PRIME 06 Jul 21:25:54 21:29:20 22° 101° (E) 21:33:01 437.505
CINEMA 3 06 Jul 21:34:43 21:39:02 46° 76° (ENE) 21:43:13 145.822/145.860
STRAND 1 06 Jul 21:34:59 21:38:45 20° 290° (WNW) 21:42:21 437.568
COMPASS 1 06 Jul 21:52:02 21:56:10 81° 260° (W) 22:00:20 437.405
JUGNU 06 Jul 21:56:57 21:59:03 12° 199° (SSW) 22:00:59 437.505
HO-68 06 Jul 21:58:14 22:05:12 53° 259° (W) 22:12:08 435.675
ZACube-1 06 Jul 21:58:35 22:01:41 21° 73° (ENE) 22:04:52 437.345
Oscar 11 06 Jul 22:00:40 22:04:41 41° 75° (ENE) 22:08:45 145.826/435.025
CUBEBUG 2 06 Jul 22:06:20 22:10:28 47° 76° (ENE) 22:14:32 437.445
CUTE 1.7 + AOD 2 06 Jul 22:11:00 22:14:37 27° 264° (W) 22:18:12 437.475
GOMX 1 06 Jul 22:14:20 22:17:47 17° 266° (W) 22:20:52 467.674
CANX-2 06 Jul 22:15:09 22:18:27 22° 265° (W) 22:21:41 2200.000
GONETS M04 06 Jul 22:16:24 22:24:04 35° 271° (W) 22:31:33
AUBIESAT-1 06 Jul 22:22:54 22:27:21 88° 287° (WNW) 22:32:01 437.475
FUNcube-1 06 Jul 22:32:29 22:36:36 55° 76° (ENE) 22:40:40 145.935
Cosmos 2499 06 Jul 22:36:41 22:44:45 69° 82° (E) 22:53:23 435.465 / 435.565
DOVE 4 06 Jul 22:48:09 22:49:40 11° 268° (W) 22:50:48 437.250
50 SAT 06 Jul 22:48:43 22:50:41 14° 72° (ENE) 22:52:50 437.505
UWE-3 06 Jul 22:51:56 22:56:09 56° 260° (W) 23:00:15 435.000/436.395/437.385
SRMSAT 06 Jul 22:52:00 22:55:47 17° 196° (SSW) 22:59:27 437.500
TIGRISAT 06 Jul 22:53:06 22:54:25 11° 92° (E) 22:56:02 435.000
DELFI C3 06 Jul 22:57:10 23:01:03 50° 261° (W) 23:04:57 145.870
M-CUBED/EXP-1 PRIME 06 Jul 23:00:16 23:04:03 28° 290° (WNW) 23:07:57 437.505
AAUSAT CUBESAT 2 06 Jul 23:01:40 23:03:39 13° 268° (W) 23:05:22 437.432
ESTCUBE 1 06 Jul 23:11:51 23:14:48 18° 71° (ENE) 23:17:57 437.505/2401.250
CINEMA 3 06 Jul 23:15:00 23:16:27 11° 268° (W) 23:17:35 145.822/145.860
DX 1 06 Jul 23:16:55 23:21:16 67° 75° (ENE) 23:25:37 434.975-435.025
VELOX 1 06 Jul 23:17:46 23:21:45 33° 73° (ENE) 23:25:47 145.980
HUMSAT D 06 Jul 23:31:05 23:35:09 63° 259° (W) 23:39:12 437.325/437.525
UNISAT 6 06 Jul 23:31:31 23:35:38 37° 98° (E) 23:39:52 437.425
UKube-1 06 Jul 23:33:50 23:38:11 82° 258° (WSW) 23:42:32 .
ZACube-1 06 Jul 23:34:36 23:37:57 22° 265° (W) 23:41:10 437.345
Oscar 11 06 Jul 23:39:35 23:41:07 11° 268° (W) 23:42:21 145.826/435.025
QB50P1 06 Jul 23:47:25 23:50:26 20° 95° (E) 23:53:35 145.935-145.965
NANOSAT C BR1 07 Jul 00:00:05 00:03:42 28° 97° (E) 00:07:21 145.865
AISAT 07 Jul 00:05:17 00:09:42 59° 259° (W) 00:14:07 437.250
DUCHIFAT 1 07 Jul 00:05:58 00:09:43 32° 97° (E) 00:13:31 145.980
BUGSAT 1 07 Jul 00:11:42 00:14:53 23° 96° (E) 00:18:06 437.445
PCSat 07 Jul 00:12:36 00:13:52 11° 49° (NE) 00:15:28 145.827
POLYITAN 1 07 Jul 00:14:15 00:18:17 45° 99° (E) 00:22:20 437.675
CUBEBUG 1 07 Jul 00:14:43 00:19:09 87° 78° (ENE) 00:23:36 437.445
ANTELSAT 07 Jul 00:15:52 00:20:16 61° 284° (WNW) 00:24:45 437.575/2403.000
50 SAT 07 Jul 00:21:48 00:25:06 27° 263° (W) 00:28:21 437.505
TIGRISAT 07 Jul 00:27:09 00:31:24 45° 284° (WNW) 00:35:43 435.000
Cosmos 2499 07 Jul 00:31:56 00:37:25 19° 273° (W) 00:42:35 435.465 / 435.565
QB50P2 07 Jul 00:43:24 00:47:36 72° 283° (WNW) 00:51:47 145.880/145.840
POPSAT HIP 1 07 Jul 00:43:25 00:47:37 75° 283° (WNW) 00:51:48 437.405
ESTCUBE 1 07 Jul 00:47:24 00:51:28 31° 263° (W) 00:55:29 437.505/2401.250
VELOX 1 07 Jul 00:55:34 00:58:24 16° 266° (W) 01:01:02 145.980
SPROUT 07 Jul 01:06:35 01:10:54 87° 252° (WSW) 01:15:14 437.525
UNISAT 6 07 Jul 01:09:34 01:12:10 15° 289° (WNW) 01:14:35 437.425
QB50P1 07 Jul 01:22:51 01:26:16 23° 287° (WNW) 01:29:34 145.935-145.965
RS-15 07 Jul 01:30:18 01:40:03 42° 109° (ESE) 01:50:10 29.354- 29.394
NANOSAT C BR1 07 Jul 01:36:34 01:39:20 17° 288° (WNW) 01:41:56 145.865
TISAT 1 07 Jul 01:37:42 01:41:52 55° 260° (W) 01:46:01 437.305
BEESAT 07 Jul 01:42:22 01:45:52 21° 71° (ENE) 01:49:30 436.000
DUCHIFAT 1 07 Jul 01:42:54 01:45:17 15° 289° (WNW) 01:47:29 145.980
BUGSAT 1 07 Jul 01:47:20 01:50:13 18° 288° (WNW) 01:52:57 437.445
PCSat 07 Jul 01:52:36 01:58:02 84° 248° (WSW) 02:03:27 145.827
POLYITAN 1 07 Jul 01:52:40 01:53:50 11° 290° (WNW) 01:54:44 437.675
SWISSCUBE 07 Jul 01:57:32 02:01:49 35° 73° (ENE) 02:06:10 437.505
ITUPSAT 1 07 Jul 02:04:07 02:08:28 36° 73° (ENE) 02:12:53 437.325
Cosmos 2491 07 Jul 02:15:07 02:22:29 31° 74° (ENE) 02:30:03 435.465 / 435.565
SO-50 07 Jul 02:27:18 02:32:15 83° 63° (ENE) 02:37:03 436.795
Oscar 19 07 Jul 02:32:14 02:37:10 47° 99° (E) 02:42:07 437.125/150
YUBILEINY 07 Jul 02:41:46 02:47:59 24° 86° (E) 02:54:36 435.215
ITAMSAT 1 07 Jul 02:51:16 02:54:27 17° 93° (E) 02:57:53 435.822/435.867
STARS 07 Jul 02:59:48 03:01:26 12° 70° (ENE) 03:03:19 437.465
Gurwin Techsat 1B 07 Jul 03:00:21 03:04:29 24° 95° (E) 03:08:45 435.225
BEESAT 07 Jul 03:19:23 03:23:34 29° 263° (W) 03:27:40 436.000
SWISSCUBE 07 Jul 03:36:30 03:39:46 18° 266° (W) 03:42:52 437.505
RS-15 07 Jul 03:42:00 03:52:20 45° 306° (NW) 04:02:49 29.354- 29.394
ITUPSAT 1 07 Jul 03:43:20 03:46:30 17° 267° (W) 03:49:26 437.325
AIST 1 07 Jul 03:43:47 03:48:04 64° 266° (W) 03:52:18
KKS-1 07 Jul 03:48:01 03:52:29 88° 78° (ENE) 03:56:57 437.445
Cosmos 2491 07 Jul 04:11:23 04:19:32 45° 270° (W) 04:27:33 435.465 / 435.565
Oscar 19 07 Jul 04:13:07 04:16:11 15° 291° (WNW) 04:18:59 437.125/150
JAS-2 07 Jul 04:26:50 04:33:40 52° 100° (E) 04:41:08 435.910
MOZHAYETS 4 07 Jul 04:26:56 04:30:03 19° 72° (ENE) 04:33:21
ITAMSAT 1 07 Jul 04:29:16 04:34:09 42° 287° (WNW) 04:39:00 435.822/435.867
STARS 07 Jul 04:33:20 04:37:33 44° 261° (W) 04:41:44 437.465
YUBILEINY 07 Jul 04:35:48 04:44:19 57° 280° (W) 04:52:48 435.215
Gurwin Techsat 1B 07 Jul 04:39:48 04:44:29 32° 288° (WNW) 04:49:06 435.225
AO-7 07 Jul 04:45:08 04:52:41 39° 99° (E) 05:00:20 29.400- 29.500
HORYU 2 07 Jul 04:46:57 04:51:03 36° 98° (E) 04:55:13 437.375
VERMONT LUNAR 07 Jul 05:15:23 05:17:49 21° 143° (SE) 05:20:17 437.305
Cosmos 2504 07 Jul 06:01:53 06:08:37 55° 92° (E) 06:15:21 435.465 / 435.565
MOZHAYETS 4 07 Jul 06:03:04 06:07:06 30° 263° (W) 06:11:05
RS-15 07 Jul 06:06:32 06:08:58 11° 336° (NNW) 06:10:45 29.354- 29.394
JAS-2 07 Jul 06:12:51 06:18:27 25° 290° (WNW) 06:24:11 435.910
PHONESAT 2.4 07 Jul 06:16:15 06:16:54 11° 139° (SE) 06:17:43 2401.200-2431.200
O/OREOS (USA 219) 07 Jul 06:22:41 06:24:43 13° 101° (ESE) 06:27:02 437.305
HORYU 2 07 Jul 06:24:45 06:27:26 15° 290° (WNW) 06:29:56 437.375
Cubesat XI-IV 07 Jul 06:25:04 06:25:17 10° 90° (E) 06:26:00 437.490
CUBESAT XI-V 07 Jul 06:37:18 06:41:40 41° 74° (ENE) 06:46:07 437.345
AO-7 07 Jul 06:37:51 06:45:26 39° 293° (WNW) 06:52:51 29.400- 29.500
ISS 07 Jul 06:41:04 06:44:10 44° 131° (SE) 06:47:16 145.825
VERMONT LUNAR 07 Jul 06:51:38 06:54:35 40° 335° (NNW) 06:57:32 437.305
BEESAT 3 07 Jul 06:54:02 06:58:04 84° 117° (ESE) 07:02:10 437.485
STRAND 1 07 Jul 07:05:20 07:09:37 28° 72° (ENE) 07:14:01 437.568
BEESAT 2 07 Jul 07:10:25 07:14:29 81° 295° (WNW) 07:18:37 435.950
AIST 2 07 Jul 07:11:43 07:14:42 20° 111° (ESE) 07:17:51 435.215
PRISM 07 Jul 07:11:59 07:15:25 26° 73° (ENE) 07:18:58 437.425
DANDE 07 Jul 07:14:00 07:18:02 17° 94° (E) 07:21:58 436.750
CUTE-I 07 Jul 07:25:36 07:30:47 51° 100° (E) 07:35:58 437.470
CUSAT 1 07 Jul 07:30:29 07:36:12 31° 97° (E) 07:40:53 437.405
PHONESAT 2.4 07 Jul 07:51:10 07:54:36 89° 153° (SSE) 07:58:02 2401.200-2431.200
Cosmos 2504 07 Jul 07:56:39 08:01:18 18° 288° (WNW) 08:05:32 435.465 / 435.565
O/OREOS (USA 219) 07 Jul 07:59:42 08:03:51 37° 292° (WNW) 08:08:00 437.305
Cubesat XI-IV 07 Jul 08:00:37 08:05:58 69° 285° (WNW) 08:11:15 437.490
CUBESAT XI-V 07 Jul 08:16:40 08:19:19 14° 268° (W) 08:21:43 437.345
ISS 07 Jul 08:19:03 08:20:46 13° 325° (NW) 08:22:23 145.825
VERMONT LUNAR 07 Jul 08:30:22 08:32:01 13° 351° (N) 08:33:39 437.305
GOMX 1 07 Jul 08:44:07 08:46:26 15° 93° (E) 08:48:57 467.674
STRAND 1 07 Jul 08:44:32 08:48:47 25° 264° (W) 08:52:57 437.568
PRISM 07 Jul 08:47:58 08:50:52 18° 265° (W) 08:53:37 437.425
AIST 2 07 Jul 08:49:28 08:53:08 27° 303° (WNW) 08:56:46 435.215
DANDE 07 Jul 08:53:49 09:01:15 62° 278° (W) 09:06:58 436.750
AUBIESAT-1 07 Jul 09:06:09 09:09:11 35° 70° (ENE) 09:12:21 437.475
CUTE-I 07 Jul 09:07:18 09:10:30 16° 292° (WNW) 09:13:24 437.470
SEEDS 07 Jul 09:11:01 09:12:55 13° 92° (E) 09:15:05 437.485
GONETS M04 07 Jul 09:12:15 09:20:43 56° 92° (E) 09:29:13
DOVE 4 07 Jul 09:12:47 09:15:49 20° 95° (E) 09:19:02 437.250
CUSAT 1 07 Jul 09:13:12 09:18:42 27° 280° (W) 09:23:03 437.405
BRITE-PL 07 Jul 09:22:51 09:27:03 86° 282° (WNW) 09:31:11 437.365/2234.400
PHONESAT 2.4 07 Jul 09:30:15 09:32:54 20° 344° (NNW) 09:35:33 2401.200-2431.200
HO-68 07 Jul 09:32:30 09:39:11 43° 99° (E) 09:45:57 435.675
CINEMA 3 07 Jul 09:36:24 09:39:00 16° 94° (E) 09:41:50 145.822/145.860
COMPASS 1 07 Jul 09:41:52 09:45:20 25° 96° (E) 09:48:54 437.405
M-CUBED/EXP-1 PRIME 07 Jul 09:43:23 09:46:31 42° 256° (WSW) 09:49:44 437.505
Oscar 11 07 Jul 09:55:46 09:57:31 13° 92° (E) 09:59:32 145.826/435.025
CUTE 1.7 + AOD 2 07 Jul 10:01:20 10:05:38 78° 100° (E) 10:09:56 437.475
CUBEBUG 2 07 Jul 10:04:14 10:06:47 16° 94° (E) 10:09:34 437.445
CANX-2 07 Jul 10:05:10 10:09:29 82° 284° (WNW) 10:13:47 2200.000
VERMONT LUNAR 07 Jul 10:08:16 10:09:45 13° 8° (N) 10:11:16 437.305
GOMX 1 07 Jul 10:21:05 10:24:40 28° 286° (WNW) 10:28:14 467.674
UNISAT 6 07 Jul 10:26:16 10:28:44 16° 71° (ENE) 10:31:22 437.425
FUNcube-1 07 Jul 10:27:34 10:30:20 17° 94° (E) 10:33:17 145.935
RS-15 07 Jul 10:38:11 10:47:54 30° 47° (NE) 10:58:18 29.354- 29.394
DELFI C3 07 Jul 10:42:17 10:45:54 32° 97° (E) 10:49:35 145.870
SEEDS 07 Jul 10:44:57 10:48:53 36° 285° (WNW) 10:52:46 437.485
UWE-3 07 Jul 10:47:27 10:51:32 42° 99° (E) 10:55:44 435.000/436.395/437.385
AAUSAT CUBESAT 2 07 Jul 10:47:58 10:52:04 51° 284° (WNW) 10:56:09 437.432
NANOSAT C BR1 07 Jul 10:49:47 10:50:17 10° 70° (ENE) 10:51:05 145.865
DOVE 4 07 Jul 10:50:18 10:53:34 22° 287° (WNW) 10:56:46 437.250
DUCHIFAT 1 07 Jul 10:54:36 10:56:04 12° 70° (ENE) 10:57:47 145.980
POLYITAN 1 07 Jul 11:02:37 11:05:12 16° 71° (ENE) 11:07:56 437.675
Cosmos 2499 07 Jul 11:06:55 11:13:51 63° 93° (E) 11:20:51 435.465 / 435.565
ANTELSAT 07 Jul 11:09:01 11:13:11 54° 76° (ENE) 11:17:22 437.575/2403.000
PHONESAT 2.4 07 Jul 11:09:54 11:11:44 14° 1° (N) 11:13:34 2401.200-2431.200
GONETS M04 07 Jul 11:11:00 11:18:03 25° 288° (WNW) 11:24:43
DX 1 07 Jul 11:12:18 11:15:15 18° 95° (E) 11:18:21 434.975-435.025
CINEMA 3 07 Jul 11:12:35 11:16:16 29° 285° (WNW) 11:19:57 145.822/145.860
COMPASS 1 07 Jul 11:17:48 11:20:51 19° 288° (WNW) 11:23:46 437.405
TIGRISAT 07 Jul 11:19:50 11:24:06 73° 77° (ENE) 11:28:20 435.000
HO-68 07 Jul 11:20:41 11:26:42 29° 293° (WNW) 11:32:33 435.675
HUMSAT D 07 Jul 11:21:06 11:24:49 31° 97° (E) 11:28:37 437.325/437.525
ZACube-1 07 Jul 11:27:44 11:32:01 77° 283° (WNW) 11:36:23 437.345
UKube-1 07 Jul 11:27:50 11:31:26 26° 97° (E) 11:35:04 .
Oscar 11 07 Jul 11:29:49 11:33:54 39° 285° (WNW) 11:37:56 145.826/435.025
POPSAT HIP 1 07 Jul 11:30:19 11:34:10 35° 74° (ENE) 11:38:03 437.405
QB50P2 07 Jul 11:30:24 11:34:17 37° 75° (ENE) 11:38:13 145.880/145.840
CUBEBUG 2 07 Jul 11:39:45 11:43:32 31° 285° (WNW) 11:47:22 437.445
VERMONT LUNAR 07 Jul 11:44:21 11:47:14 33° 23° (NNE) 11:50:08 437.305
UNISAT 6 07 Jul 12:01:28 12:05:18 31° 263° (W) 12:09:05 437.425
AISAT 07 Jul 12:02:04 12:06:12 41° 99° (E) 12:10:22 437.250
50 SAT 07 Jul 12:02:36 12:06:25 48° 100° (E) 12:10:14 437.505
FUNcube-1 07 Jul 12:02:58 12:06:41 28° 286° (WNW) 12:10:23 145.935
QB50P1 07 Jul 12:08:34 12:12:48 71° 259° (WSW) 12:17:02 145.935-145.965
CUBEBUG 1 07 Jul 12:10:15 12:13:48 25° 96° (E) 12:17:24 437.445
DELFI C3 07 Jul 12:18:30 12:20:44 14° 289° (WNW) 12:22:47 145.870
NANOSAT C BR1 07 Jul 12:21:39 12:25:45 48° 260° (W) 12:29:50 145.865
UWE-3 07 Jul 12:26:02 12:27:47 12° 289° (WNW) 12:29:18 435.000/436.395/437.385
DUCHIFAT 1 07 Jul 12:27:33 12:31:34 41° 261° (W) 12:35:33 145.980
BUGSAT 1 07 Jul 12:29:56 12:34:07 62° 259° (W) 12:38:17 437.445
POLYITAN 1 07 Jul 12:37:10 12:40:54 29° 263° (W) 12:44:35 437.675
ESTCUBE 1 07 Jul 12:45:30 12:50:04 87° 104° (ESE) 12:54:35 437.505/2401.250
PHONESAT 2.4 07 Jul 12:47:40 12:50:30 24° 18° (NNE) 12:53:23 2401.200-2431.200
DX 1 07 Jul 12:47:49 12:51:31 27° 287° (WNW) 12:55:07 434.975-435.025
RS-15 07 Jul 12:49:38 13:01:28 72° 246° (WSW) 13:13:37 29.354- 29.394
VELOX 1 07 Jul 12:50:13 12:54:28 50° 285° (WNW) 12:58:42 145.980
HUMSAT D 07 Jul 12:57:47 13:00:20 15° 288° (WNW) 13:02:44 437.325/437.525
SPROUT 07 Jul 12:59:50 13:03:20 25° 96° (E) 13:06:54 437.525
Cosmos 2499 07 Jul 13:03:23 13:07:40 16° 290° (WNW) 13:11:30 435.465 / 435.565
UKube-1 07 Jul 13:04:16 13:07:24 19° 289° (WNW) 13:10:24 .
POPSAT HIP 1 07 Jul 13:08:01 13:10:11 13° 267° (W) 13:12:07 437.405
QB50P2 07 Jul 13:08:20 13:10:21 13° 267° (W) 13:12:06 145.880/145.840
VERMONT LUNAR 07 Jul 13:21:19 13:24:05 28° 216° (SW) 13:26:50 437.305
TISAT 1 07 Jul 13:28:17 13:32:06 35° 98° (E) 13:35:56 437.305
AISAT 07 Jul 13:40:21 13:42:28 13° 290° (WNW) 13:44:21 437.250
Oscar 19 07 Jul 13:43:18 13:47:57 37° 73° (ENE) 13:52:41 437.125/150
CUBEBUG 1 07 Jul 13:46:47 13:50:01 20° 288° (WNW) 13:53:06 437.445
ITAMSAT 1 07 Jul 14:04:10 14:06:53 15° 68° (ENE) 14:09:52 435.822/435.867
SWISSCUBE 07 Jul 14:05:12 14:07:44 15° 93° (E) 14:10:31 437.505
ITUPSAT 1 07 Jul 14:11:57 14:14:42 16° 93° (E) 14:17:41 437.325
Gurwin Techsat 1B 07 Jul 14:15:59 14:19:49 21° 70° (ENE) 14:23:50 435.225
PHONESAT 2.4 07 Jul 14:25:18 14:28:43 65° 213° (SSW) 14:32:09 2401.200-2431.200
JUGNU 07 Jul 14:25:57 14:29:46 18° 164° (SSE) 14:33:39 437.505
SPROUT 07 Jul 14:36:10 14:39:16 19° 288° (WNW) 14:42:14 437.525
PCSat 07 Jul 14:45:38 14:50:16 30° 108° (ESE) 14:55:00 145.827
ISS 07 Jul 14:49:23 14:52:22 34° 42° (NE) 14:55:23 145.825
YUBILEINY 07 Jul 14:53:12 15:01:44 56° 80° (E) 15:10:21 435.215
TISAT 1 07 Jul 15:05:26 15:07:36 14° 289° (WNW) 15:09:34 437.305
Cosmos 2491 07 Jul 15:08:06 15:16:12 44° 90° (E) 15:24:26 435.465 / 435.565
RS-15 07 Jul 15:08:57 15:12:48 11° 258° (WSW) 15:15:06 29.354- 29.394
